This is the latest recevied weather packets stored in our database for station/object KI5MKI. If no packets are shown the sender has not sent any weather packets the latest 10 day(s).
| Time | Temp. | Humidity | Pressure | Rain* | Wind** | Luminosity | Snow |
|---|---|---|---|---|---|---|---|
| 1777729825 | 13.89° C | 71% | 1021.8 hPa | 0 mm | - | 86 W/m² | - |
| 1777729522 | 13.89° C | 71% | 1021.8 hPa | 0 mm | - | 63 W/m² | - |
| 1777729218 | 13.89° C | 72% | 1021.4 hPa | 0 mm | - | 63 W/m² | - |
| 1777728915 | 13.33° C | 69% | 1021.5 hPa | 0 mm | - | 60 W/m² | - |
| 1777728612 | 12.78° C | 72% | 1021.3 hPa | 0 mm | - | 59 W/m² | - |
| 1777728309 | 12.78° C | 74% | 1021.2 hPa | 0 mm | - | 57 W/m² | - |
| 1777728006 | 12.22° C | 74% | 1021.1 hPa | 0 mm | - | 56 W/m² | - |
| 1777727703 | 12.22° C | 75% | 1021 hPa | 0 mm | - | 54 W/m² | - |
| 1777727400 | 11.67° C | 75% | 1021.1 hPa | 0 mm | - | 52 W/m² | - |
| 1777726795 | 11.67° C | 76% | 1021.2 hPa | 0 mm | - | 48 W/m² | - |
| 1777726492 | 11.67° C | 76% | 1020.9 hPa | 0 mm | - | 46 W/m² | - |
| 1777725583 | 10.56° C | 81% | 1020.9 hPa | 0 mm | - | 41 W/m² | - |
| 1777724977 | 10° C | 82% | 1020.4 hPa | 0 mm | - | 36 W/m² | - |
| 1777724673 | 10° C | 82% | 1020.5 hPa | 0 mm | - | 34 W/m² | - |
| 1777724372 | 10° C | 84% | 1020.4 hPa | 0 mm | - | 31 W/m² | - |
| 1777724068 | 9.44° C | 84% | 1020.3 hPa | 0 mm | - | 28 W/m² | - |
| 1777723766 | 9.44° C | 84% | 1020.5 hPa | 0 mm | - | 26 W/m² | - |
| 1777723462 | 9.44° C | 85% | 1020.3 hPa | 0 mm | - | 22 W/m² | - |
| 1777723159 | 9.44° C | 85% | 1020.2 hPa | 0 mm | - | 19 W/m² | - |
| 1777722552 | 9.44° C | 84% | 1020.3 hPa | 0 mm | - | 12 W/m² | - |
| 1777722249 | 10° C | 84% | 1020.2 hPa | 0 mm | - | 8 W/m² | - |
| 1777721946 | 10° C | 84% | 1020.1 hPa | 0 mm | - | 5 W/m² | - |
| 1777721644 | 10° C | 84% | 1020.1 hPa | 0 mm | - | 3 W/m² | - |
| 1777721342 | 10° C | 84% | 1019.9 hPa | 0 mm | - | 1 W/m² | - |
| 1777721040 | 10° C | 84% | 1019.8 hPa | 0 mm | - | 1 W/m² | - |
* Rain latest hour (hover to see other rain measurements)
** Current wind speed in m/s (hover to see current wind gust speed)